CW2434 Weather Reports


Display with metric or nautical units.
time (UTC)temp
F
wind
direction
speed
MPH
gust
MPH
rain 1hr
in
rain 24hr
in
rain mn
in
humidity
%
barometer
mb
20260901110055 67 0 0.0 3.0 0.00 0.07 0.06 96 1016.5
20260901104557 67 0 0.0 0.0 0.00 0.07 0.06 96 1016.4
20260901103054 67 0 0.0 0.0 0.00 0.07 0.06 96 1016.5
20260901101609 67 0 0.0 0.0 0.00 0.07 0.06 96 1016.4
20260901100100 67 0 0.0 1.0 0.00 0.07 0.06 96 1016.1
20260901094553 67 0 0.0 0.0 0.00 0.07 0.06 95 1016.1
20260901093102 67 0 0.0 1.0 0.01 0.07 0.06 95 1016.3
20260901091558 67 131 0.0 1.0 0.01 0.07 0.06 95 1016.1
20260901090105 67 0 0.0 3.0 0.01 0.07 0.06 95 1016.3
20260901084601 66 0 0.0 2.0 0.01 0.07 0.06 95 1016.5
20260901083101 66 0 0.0 1.0 0.00 0.06 0.05 95 1016.4
20260901081601 66 0 0.0 3.0 0.01 0.06 0.05 95 1016.7
20260901080115 66 0 0.0 3.0 0.01 0.06 0.05 95 1016.9
20260901074600 66 0 0.0 1.0 0.01 0.06 0.05 95 1017.1
20260901073056 66 0 0.0 1.0 0.01 0.06 0.05 95 1017.2
20260901071605 66 0 0.0 0.0 0.01 0.05 0.04 95 1017.2
20260901070104 66 0 0.0 2.0 0.02 0.05 0.04 95 1017.2
20260901064604 66 0 0.0 0.0 0.02 0.05 0.04 95 1017.4
20260901063059 66 0 0.0 0.0 0.03 0.05 0.04 95 1017.4
20260901061603 66 0 0.0 1.0 0.02 0.04 0.03 95 1017.7
20260901060108 66 0 0.0 1.0 0.01 0.03 0.02 95 1017.7
20260901054559 66 0 0.0 0.0 0.02 0.04 0.02 95 1017.8
20260901053122 66 0 0.0 1.0 0.01 0.03 0.01 95 1017.9
20260901051609 66 0 0.0 2.0 0.01 0.03 0.01 95 1018.0
20260901050105 66 0 0.0 1.0 0.01 0.03 0.01 95 1017.9
20260901044609 66 0 0.0 2.0 0.00 0.02 0.00 95 1018.1
20260901043100 66 0 0.0 0.0 0.01 0.02 0.00 95 1018.3
20260901041559 66 0 0.0 1.0 0.01 0.02 0.00 94 1018.3
20260901040114 66 0 0.0 0.0 0.01 0.02 0.00 94 1018.3
20260901034609 66 209 0.0 0.0 0.01 0.02 0.02 94 1018.5
20260901033100 66 0 0.0 0.0 0.00 0.01 0.01 94 1018.4
20260901031557 66 0 0.0 3.0 0.00 0.01 0.01 94 1018.4
20260901030104 66 0 0.0 1.0 0.00 0.01 0.01 94 1018.4
20260901024601 66 51 0.0 2.0 0.00 0.02 0.01 94 1018.5
20260901023107 66 0 0.0 1.0 0.00 0.02 0.01 94 1018.7
20260901021557 66 0 0.0 0.0 0.00 0.02 0.01 94 1018.9
20260901020059 66 0 0.0 0.0 0.00 0.02 0.01 94 1018.9
20260901014600 66 0 0.0 0.0 0.00 0.12 0.01 94 1018.7
20260901013057 66 0 0.0 3.0 0.00 0.12 0.01 93 1018.7
20260901011605 66 0 0.0 0.0 0.00 0.12 0.01 93 1018.9
20260901010056 66 0 0.0 3.0 0.00 0.12 0.01 93 1019.0
20260901004608 66 0 0.0 3.0 0.00 0.12 0.01 92 1019.1
20260901003103 66 111 0.0 6.0 0.00 0.12 0.01 91 1018.9
20260901001600 66 0 0.0 4.0 0.00 0.12 0.01 91 1018.9
20260901000056 66 0 0.0 3.0 0.00 0.12 0.01 91 1018.7
20260831234553 66 171 1.0 5.0 0.00 0.12 0.01 91 1018.6
20260831233101 66 0 0.0 0.0 0.00 0.12 0.01 92 1018.7
20260831231602 67 0 0.0 0.0 0.00 0.12 0.01 92 1018.8
20260831230115 67 0 0.0 0.0 0.00 0.12 0.01 92 1019.1
20260831224559 67 0 0.0 0.0 0.00 0.12 0.01 91 1019.2
20260831223058 68 0 0.0 0.0 0.00 0.12 0.01 89 1019.3
20260831221603 69 198 0.0 5.0 0.00 0.12 0.01 86 1019.4
20260831220121 69 0 0.0 5.0 0.00 0.12 0.01 84 1019.4
20260831214601 70 185 0.0 2.0 0.00 0.12 0.01 86 1019.4
20260831213128 70 0 0.0 0.0 0.00 0.12 0.01 87 1019.2
20260831211616 70 0 0.0 0.0 0.00 0.12 0.01 86 1019.2
20260831204600 70 0 0.0 0.0 0.00 0.12 0.01 86 1019.2
20260831203101 71 0 0.0 2.0 0.00 0.12 0.01 84 1019.2
20260831201602 71 263 1.0 3.0 0.00 0.12 0.01 84 1019.2
20260831200100 71 186 1.0 3.0 0.00 0.12 0.01 83 1019.4
20260831194558 71 0 0.0 3.0 0.00 0.12 0.01 82 1019.4
20260831193102 71 0 1.0 4.0 0.00 0.12 0.01 82 1019.5
20260831191601 72 250 2.0 6.0 0.00 0.12 0.01 81 1019.7
20260831190108 72 241 2.0 7.0 0.00 0.12 0.01 78 1019.9
20260831184611 73 267 3.0 7.0 0.00 0.12 0.01 74 1020.0
20260831183059 73 325 4.0 8.0 0.00 0.12 0.01 74 1020.0
20260831181601 72 196 1.0 6.0 0.00 0.12 0.01 78 1020.0
20260831180100 72 0 0.0 5.0 0.00 0.12 0.01 76 1020.1
20260831174559 71 0 1.0 5.0 0.00 0.12 0.01 78 1020.4
20260831173058 72 0 0.0 3.0 0.00 0.12 0.01 75 1020.7
20260831171604 73 0 1.0 6.0 0.00 0.12 0.01 74 1020.7
20260831170104 73 0 0.0 6.0 0.00 0.12 0.01 73 1020.5
20260831164615 73 97 1.0 4.0 0.00 0.12 0.01 72 1020.4
20260831163055 73 101 2.0 5.0 0.00 0.12 0.01 73 1020.6
20260831161607 72 242 2.0 6.0 0.00 0.12 0.01 75 1020.8
20260831154635 72 219 2.0 6.0 0.00 0.12 0.01 74 1021.0
20260831153107 72 0 1.0 7.0 0.00 0.12 0.01 70 1021.0
20260831151612 72 133 4.0 11.0 0.00 0.12 0.01 72 1021.3
20260831150058 70 0 0.0 5.0 0.00 0.12 0.01 77 1020.9
20260831144608 70 174 2.0 6.0 0.00 0.12 0.01 81 1021.0
20260831143121 70 0 1.0 7.0 0.00 0.12 0.01 78 1021.1
20260831141619 69 36 0.0 4.0 0.00 0.12 0.01 82 1020.9
20260831140059 69 55 1.0 4.0 0.00 0.12 0.01 84 1020.9
20260831134559 68 0 0.0 4.0 0.00 0.12 0.01 83 1020.9
20260831133110 68 16 2.0 7.0 0.00 0.12 0.01 83 1020.9
20260831131603 68 0 1.0 8.0 0.00 0.12 0.01 85 1020.9
20260831130101 67 360 2.0 9.0 0.00 0.12 0.01 86 1021.0
20260831124601 66 36 2.0 8.0 0.00 0.12 0.01 90 1021.0
20260831123102 65 360 0.0 8.0 0.00 0.12 0.01 92 1021.1
20260831121558 64 0 0.0 5.0 0.00 0.12 0.01 93 1021.1
20260831120110 63 0 0.0 1.0 0.00 0.12 0.01 95 1020.8
20260831114610 62 0 0.0 0.0 0.00 0.12 0.01 95 1020.9
20260831113102 62 0 0.0 0.0 0.00 0.12 0.01 95 1020.8
20260831111608 62 0 0.0 0.0 0.00 0.12 0.01 94 1020.5